カタログに戻る

STARLINK-35607

運用中通信VLEO
NORAD 66163·PAYLOAD·🇺🇸 United States

打ち上げ Oct 25, 2025 から Cape Canaveral Space Force Station

Loading…

次のパス (今後24時間)

TLE

最新Source: CelesTrak SupGP

元期: Sep 14, 2026, 23:08 UTC

1 66163C 25240T   26257.96437500  .00039848  00000+0  11773-2 0  2570
2 66163  53.1575 259.4826 0001300  95.7670 345.2898 15.34372159    14

AllMySatでSTARLINK-35607をリアルタイム追跡

Download on the App Store